Tracking 29892 objects as of 21-Nov-2024
HD Live streaming from Space Station
objects crossing your sky now

DELTA 1 DEB

Track DELTA 1 DEB now!
10-day predictions


NORAD ID: 12269
Int'l Code: 1978-026DN
Perigee: 604.4 km
Apogee: 669.4 km
Inclination: 98.1 °
Period: 97.3 minutes
Semi major axis: 7007 km
RCS: 0.0071 m2 (small)
Launch date: March 5, 1978
Source: United States (US)
Launch site: AIR FORCE WESTERN TEST RANGE (AFWTR)

Note: This is SATELLITE DEBRIS
Your satellite tracking list
Your tracking list is empty




NASA's NSSDC Master Catalog

Two Line Element Set (TLE):
1 12269U 78026DN  24325.20575993  .00012122  00000-0  15839-2 0  9995
2 12269  98.0694 302.1496 0046330 197.3704 284.9294 14.79860629308720
Source of the keplerian elements: AFSPC